Lapse_Rate
3.4 4.4 5.0 5.4 5.3 5.0 4.7 4.8 4.6 5.1 5.4 5.5 5.2 5.2 5.6 5.6 5.6 5.8 6.3 6.2 5.7 5.3 5.1 4.9 4.9 4.8 4.6 4.5 4.6 4.9 4.9 4.8 4.8 4.8 4.7 4.4 4.3 4.1
3.6 3.8 4.5 5.2 5.5 5.3 5.2 4.9 4.8 4.7 5.1 5.1 5.2 5.1 5.7 5.4 5.7 5.7 5.8 6.4 5.8 5.1 5.0 4.9 4.8 5.0 4.6 4.5 4.7 4.7 4.6 4.9 4.8 4.7 4.5 4.2 4.2 4.1
3.6 3.7 4.4 4.6 5.3 5.7 5.4 5.4 5.0 4.8 4.1 4.5 4.9 5.4 5.2 5.3 5.7 5.8 5.6 5.5 5.5 5.2 4.9 5.0 4.8 5.0 4.7 4.8 4.9 4.8 4.6 4.7 4.9 5.1 4.7 4.6 4.8 4.7
4.3 3.8 4.0 4.6 4.7 5.3 5.7 5.5 5.6 5.2 4.6 4.4 4.9 5.4 4.9 5.2 5.4 5.6 5.8 5.7 5.6 5.2 5.2 5.1 5.0 4.9 4.8 4.8 4.9 5.0 4.7 4.7 4.7 4.8 5.0 4.8 4.9 4.9
4.8 4.6 4.2 4.2 4.5 4.8 5.4 5.7 5.6 5.6 5.2 4.9 5.3 5.2 5.2 5.3 5.4 5.3 5.4 5.6 5.5 5.9 5.7 5.5 5.2 5.2 5.0 4.9 4.9 4.9 4.7 4.8 4.8 4.9 4.9 5.1 4.8 4.9
5.1 4.9 4.4 4.1 4.2 4.5 4.9 5.4 5.7 5.7 5.7 5.1 4.9 4.8 4.8 5.6 5.3 5.2 5.3 5.3 5.5 5.7 6.0 6.2 5.7 5.4 5.1 4.9 5.1 5.1 5.1 5.4 5.1 4.8 5.1 5.2 5.1 5.0
5.6 5.3 5.0 4.3 4.1 4.2 4.5 5.1 5.4 5.5 5.8 5.6 4.9 5.0 4.4 5.2 5.1 5.6 5.5 5.6 5.6 5.6 5.7 6.3 6.5 5.8 5.4 5.3 5.2 5.3 5.7 5.5 5.4 5.3 5.5 5.5 5.3 5.2
5.8 5.7 5.4 5.0 4.3 4.1 4.1 4.5 5.1 5.3 5.7 5.8 5.5 5.1 5.0 4.5 5.3 6.1 5.3 5.5 5.3 5.3 5.6 5.6 6.2 6.4 5.8 5.9 5.8 5.9 5.6 6.0 5.8 5.7 5.8 5.7 5.6 5.4
5.9 5.8 5.6 5.4 4.9 4.2 4.1 4.0 4.3 5.0 5.4 5.8 5.8 5.6 5.4 5.4 5.3 5.9 5.8 5.4 5.3 5.5 5.3 5.5 6.0 6.1 6.3 6.3 6.1 6.1 6.1 6.0 6.0 6.0 5.6 5.5 5.5 5.7
5.9 5.8 5.6 5.5 5.3 4.9 4.2 4.1 4.1 4.5 5.1 5.6 5.9 5.9 5.7 5.3 5.8 5.9 6.4 5.6 5.5 5.4 5.6 5.4 5.6 5.6 5.8 6.0 6.1 5.9 6.0 6.0 6.0 5.9 5.8 6.0 5.8 5.8
6.1 5.9 5.8 5.7 5.5 5.3 4.6 4.1 4.3 4.3 4.5 5.0 5.6 5.9 6.0 5.8 5.4 6.0 5.9 5.5 5.0 5.6 5.7 5.5 5.5 5.4 5.6 5.7 5.8 5.8 5.7 5.9 6.2 5.9 5.6 5.7 5.7 5.8
6.1 6.2 6.2 5.8 5.4 5.3 4.9 4.6 3.8 4.4 4.3 4.4 5.0 5.5 6.1 6.0 5.9 5.7 5.4 5.4 5.4 5.5 5.6 5.8 5.5 5.4 5.5 5.5 5.6 5.7 5.7 5.9 6.0 6.0 5.7 5.6 5.8 6.2
5.9 6.2 6.3 6.3 5.8 5.4 5.3 4.9 4.3 4.2 4.3 4.1 4.3 4.9 5.4 6.0 6.2 5.9 5.7 5.5 5.6 4.8 5.5 5.8 5.6 5.4 5.6 5.5 5.8 5.5 5.4 5.6 5.5 5.0 5.6 5.6 6.2 6.5
5.7 6.0 6.3 6.4 6.4 6.2 5.5 5.4 4.9 4.5 3.8 4.3 4.1 4.6 5.1 5.9 6.2 6.3 5.6 5.3 5.5 5.9 5.6 5.9 5.7 5.8 5.5 5.4 5.5 5.6 5.5 5.5 5.6 5.4 5.6 6.0 6.1 6.0
5.8 6.0 6.1 6.3 6.4 6.5 6.4 5.9 5.7 5.0 4.4 3.9 4.3 4.4 5.1 5.7 6.1 6.1 6.0 5.7 5.6 5.6 6.1 5.5 5.9 5.6 5.7 5.5 5.5 5.4 5.5 5.6 5.9 5.9 5.9 5.9 5.9 5.7
6.1 6.0 6.0 6.2 6.4 6.6 6.7 6.6 5.9 5.5 4.9 4.3 4.3 4.5 4.8 5.1 5.7 6.1 5.9 5.5 5.4 5.1 5.2 5.0 5.5 5.5 5.8 5.4 5.6 5.6 5.5 5.8 6.0 5.6 5.6 5.7 6.0 5.7
5.5 5.7 6.1 6.5 6.7 6.1 5.8 5.6 5.4 5.1 5.0 4.8 4.5 4.6 4.4 4.8 5.2 5.9 5.8 5.8 5.7 5.7 5.1 5.5 5.4 5.6 5.6 5.9 5.8 5.8 5.6 5.8 5.8 5.8 5.2 5.4 5.6 5.3
5.1 5.4 5.5 5.4 5.3 4.4 3.8 4.3 4.9 4.9 4.8 5.1 5.0 4.7 4.6 4.5 5.0 5.4 5.6 5.3 5.5 5.5 5.4 5.6 5.4 5.5 6.1 6.3 5.8 5.8 5.7 5.7 5.7 5.5 5.6 5.3 5.2 5.1
5.6 5.3 5.0 4.2 3.9 3.4 3.2 3.3 4.0 4.8 4.8 4.5 5.0 5.1 4.5 4.5 4.7 5.0 5.3 4.8 5.2 5.1 5.4 5.8 5.5 5.9 6.1 5.9 5.8 5.7 5.7 5.8 5.7 5.8 5.8 5.8 5.6 5.3
5.8 5.7 5.3 4.6 3.6 3.0 3.3 3.5 3.9 4.5 5.0 4.8 5.1 5.4 5.2 4.3 4.2 4.7 5.2 4.7 5.0 4.7 4.6 5.6 6.1 5.7 5.9 6.2 6.0 5.9 5.9 5.9 5.8 5.9 5.8 5.5 5.5 5.0
5.7 5.7 5.1 4.3 3.5 3.3 3.5 4.0 4.3 5.0 5.3 5.8 5.7 5.6 5.5 5.0 3.9 4.5 5.0 4.9 4.5 4.4 4.6 5.7 5.9 6.2 6.2 6.3 6.1 6.1 6.2 6.1 5.9 6.0 6.0 5.9 5.9 5.6
5.4 5.5 5.0 4.5 3.7 3.6 3.7 4.3 4.9 5.8 6.0 5.7 5.8 5.7 5.4 5.2 4.4 4.2 4.6 5.1 4.3 4.5 4.3 4.9 5.5 6.1 6.3 6.2 5.7 5.8 6.2 6.0 5.9 5.9 6.0 5.8 5.7 5.6
5.3 5.4 4.9 4.2 3.7 3.8 4.2 4.8 5.3 6.1 6.5 5.9 5.9 5.7 5.3 4.3 5.1 4.5 4.3 5.0 4.4 4.3 3.9 4.5 5.0 5.8 6.0 5.5 5.7 5.7 6.1 5.9 6.0 6.1 6.2 6.0 5.7 5.8
Wind_Speed
12 12 10 9 9 10 10 9 9 8 9 8 8 12 14 21 24 23 28 33 39 41 40 39 35 34 34 35 33 32 33 33 33 31 31 29 29 28
10 13 12 10 11 9 9 10 9 10 8 10 10 10 14 14 22 22 26 31 37 39 40 38 37 35 36 36 35 34 33 33 33 32 32 32 31 31
14 14 15 14 11 9 9 9 11 10 11 13 10 5 5 13 12 19 21 23 26 37 41 41 39 36 36 37 36 35 35 33 32 32 33 33 32 31
17 16 16 12 15 13 10 12 12 12 11 14 13 11 10 11 13 13 12 21 22 30 35 38 41 40 37 36 38 39 37 36 35 33 34 33 33 33
17 17 16 16 16 13 13 12 11 10 11 10 13 12 13 12 11 12 13 14 20 26 35 37 38 39 40 38 38 39 38 38 36 36 35 33 32 31
17 18 17 16 17 16 14 14 12 12 12 11 10 12 13 14 13 15 11 11 11 13 20 28 34 38 39 40 38 36 37 36 37 37 38 35 34 32
18 18 17 21 28 24 13 14 14 12 11 11 10 11 12 13 15 14 14 12 13 12 12 12 12 16 26 34 35 34 36 38 39 38 38 35 36 35
18 18 18 24 24 31 32 33 26 16 17 13 13 14 15 14 12 15 11 10 8 12 13 11 11 13 13 23 34 38 37 40 39 39 37 35 35 37
17 17 17 14 22 17 24 31 31 33 31 19 20 19 18 16 14 16 16 15 12 10 15 12 10 13 12 21 32 37 37 38 40 37 37 37 36 35
17 18 18 20 18 19 19 19 20 19 20 16 20 22 20 20 18 17 17 16 13 10 15 12 11 12 11 14 27 33 37 39 36 35 37 37 37 36
16 18 18 20 29 31 21 21 20 20 22 31 33 32 32 30 27 13 16 12 14 13 14 13 9 11 10 12 14 29 32 36 36 35 37 36 35 34
14 16 27 25 32 35 23 20 18 20 17 19 18 23 29 26 33 22 14 14 15 10 8 13 10 7 3 8 11 10 16 30 32 34 36 35 34 21
12 12 12 28 33 35 34 20 20 19 21 19 17 15 16 17 15 17 19 17 16 14 8 14 9 4 3 3 7 11 11 11 13 19 30 31 30 27
14 14 18 33 35 36 29 33 37 32 16 15 14 16 17 15 16 16 18 19 17 23 9 19 5 11 10 2 4 2 8 10 10 12 12 22 28 32
16 25 35 37 37 31 35 36 37 19 16 15 17 15 16 16 16 15 19 20 21 22 18 18 12 13 11 10 5 4 4 4 8 9 9 10 11 9
19 18 24 28 32 29 25 23 17 17 17 17 17 18 14 14 15 14 13 13 14 14 5 19 20 15 13 13 9 5 5 6 7 7 7 6 6 9
24 13 11 12 13 13 14 16 16 17 17 18 18 18 18 15 16 14 16 14 14 15 12 3 11 10 7 10 6 8 8 3 8 8 7 5 2 6
15 12 12 13 15 15 16 16 16 22 18 18 19 18 18 17 17 15 16 16 16 16 16 9 5 4 3 3 2 8 6 6 5 9 5 7 3 1
10 12 13 14 15 15 15 16 17 17 19 17 19 19 20 18 20 16 16 17 18 16 12 11 13 12 13 14 3 3 10 5 9 8 8 2 7 6
12 13 14 15 15 16 15 16 16 15 18 21 21 20 20 20 17 17 17 19 19 15 15 12 14 15 17 17 6 4 3 10 9 10 5 5 8 17
14 15 15 16 15 15 15 15 17 15 17 17 20 19 20 19 18 18 18 26 26 16 16 16 19 25 5 8 5 2 1 5 9 12 10 8 7 5
14 15 16 16 17 16 16 15 14 14 14 15 17 18 18 18 18 19 18 18 20 15 12 11 10 10 8 11 10 7 4 5 12 15 9 5 10 10
16 16 17 16 16 17 17 15 13 11 13 15 16 17 18 15 17 19 19 16 18 18 11 9 10 10 10 7 10 10 12 14 9 10 6 17 19 23
Wind_Direction
285 283 278 276 273 272 270 264 258 278 281 229 228 224 219 216 212 197 201 200 200 203 206 209 207 206 204 205 212 217 207 208 210 208 208 210 216 221
288 284 283 281 278 276 279 281 268 270 270 290 231 211 215 216 208 196 200 194 201 203 205 207 208 205 203 204 207 214 210 210 211 210 210 211 214 218
286 287 284 288 284 277 273 269 268 260 263 273 290 227 219 230 213 199 195 195 203 206 204 205 207 206 202 204 206 210 209 212 213 212 214 215 215 219
287 285 283 286 282 281 277 271 273 278 275 273 266 286 229 227 222 206 205 201 203 207 209 210 208 209 207 204 208 210 209 210 213 212 215 216 217 218
281 281 282 281 280 278 277 276 275 278 277 272 278 276 273 214 223 220 212 213 212 208 205 209 210 210 210 208 209 207 208 211 210 212 216 216 218 219
275 273 271 270 274 279 280 280 277 275 278 279 267 268 269 227 213 221 210 209 211 208 203 208 214 215 213 213 212 207 206 209 212 213 219 220 218 219
274 272 268 265 266 266 267 265 266 271 273 277 267 263 255 278 214 211 212 206 207 204 208 207 206 213 216 217 215 211 211 213 213 214 216 218 217 221
274 274 270 270 271 273 272 269 262 257 260 263 265 271 265 246 274 207 201 205 198 203 204 212 199 211 210 212 216 215 213 217 218 215 217 215 215 216
274 273 275 271 273 271 272 272 268 263 257 258 259 254 265 269 269 283 201 207 207 190 195 212 195 217 208 211 209 210 211 213 218 216 215 214 215 215
273 273 271 273 266 266 265 263 259 253 252 254 255 258 255 263 261 275 290 240 218 200 190 209 195 216 213 216 210 208 210 215 215 214 217 218 214 213
269 268 267 267 269 268 270 268 264 260 254 250 253 259 261 257 252 260 262 299 230 213 196 192 195 204 201 210 211 208 208 211 212 210 217 218 215 214
275 269 270 271 272 275 272 262 260 261 259 255 252 255 257 259 262 252 255 249 268 212 186 195 179 167 193 215 212 213 214 215 211 213 216 214 214 212
278 275 271 274 276 274 271 266 260 264 263 261 256 252 248 250 246 246 232 232 236 259 181 188 186 169 168 149 207 207 203 211 212 215 211 204 203 203
291 286 280 280 277 273 271 270 268 265 261 257 251 245 247 245 243 240 237 225 225 233 215 188 177 190 193 144 187 192 209 208 200 204 204 205 203 203
288 282 286 288 284 281 276 272 267 260 254 249 249 249 237 242 250 251 247 226 223 226 236 192 190 189 193 206 186 193 157 212 187 186 185 188 186 195
293 290 285 287 288 283 277 265 256 253 247 244 244 244 247 234 238 241 246 239 216 221 238 206 195 185 195 209 185 169 177 174 181 176 176 181 180 191
309 302 295 292 287 279 269 260 252 248 242 244 237 240 236 236 231 231 239 249 221 211 209 232 202 178 194 178 179 182 173 164 182 168 157 161 186 183
314 303 295 289 283 279 273 268 256 252 238 236 234 233 234 229 227 226 231 230 241 211 207 184 147 127 73 351 18 174 165 164 167 168 156 172 159 274
305 297 291 288 283 277 273 268 262 247 239 238 233 229 227 225 224 219 220 231 243 212 193 178 180 185 190 211 168 298 176 157 153 167 173 124 175 169
304 298 296 295 286 286 279 275 268 245 242 233 226 222 220 218 215 214 216 224 227 221 196 178 187 192 198 201 169 173 279 159 166 167 139 89 85 99
307 303 301 296 296 295 288 280 274 258 247 222 217 216 216 213 212 210 214 219 221 219 202 188 196 190 107 103 138 137 86 144 160 163 147 132 138 127
308 305 307 298 307 302 299 290 281 276 232 213 211 211 214 208 206 206 212 215 218 220 200 186 154 153 163 179 174 145 129 105 99 129 107 104 167 163
313 309 308 309 313 311 310 300 294 277 242 214 211 205 208 205 198 206 214 218 209 216 183 154 155 168 184 179 144 151 139 132 135 120 90 105 106 108